Regional Weather Roundup
Issued by NWS

Home | Current Version | Previous Version | Text Only | Print | Product List | Glossary Off
Versions: 1 2 3 4 5 6 7 8 9 10 11 12 13 14 15 16 17 18 19 20 21 22 23 24 25 26 27 28 29 30 31 32 33 34 35 36 37 38 39 40 41 42 43 44 45 46 47 48 49 50

000
ASUS43 KMKX 212300
RWRWI

WISCONSIN REGIONAL WEATHER ROUNDUP
NATIONAL WEATHER SERVICE MILWAUKEE/SULLIVAN WI
600 PM CDT MON AUG 21 2017

NOTE: "FAIR" INDICATES FEW OR NO CLOUDS BELOW 12,000 FEET WITH NO
SIGNIFICANT WEATHER AND/OR OBSTRUCTIONS TO VISIBILITY.

WIZ001-002-006>008-014>016-023>028-220000-
NORTHWEST WISCONSIN

CITY           SKY/WX    TMP DP  RH WIND       PRES   REMARKS
SUPERIOR ARPT    N/A     68  62  79 CALM      29.88R
ASHLAND        PTSUNNY   66  59  78 NE3       29.90S
HAYWARD        CLOUDY    72  65  78 CALM      29.90F
SIREN          CLOUDY    73  65  78 S5        29.90R
CUMBERLAND     CLOUDY    70  64  83 SW6       29.92R
RICE LAKE      CLOUDY    72  67  84 S6        29.92S
CHETEK           N/A     72  68  89 S3        29.91S
LADYSMITH      PTSUNNY   74  68  81 SW6       29.94R
EAU CLAIRE     CLOUDY    73  66  78 S10G18    29.84F
MENOMONIE      CLOUDY    72  66  82 S17G32    29.86F
NEW RICHMOND   CLOUDY    71  62  73 SW9G21    29.91F
OSCEOLA        CLOUDY    71  67  85 CALM      29.93F
$$

WIZ003>005-009-010-017-018-220000-
NORTH CENTRAL WISCONSIN

CITY           SKY/WX    TMP DP  RH WIND       PRES   REMARKS
MANITOWISH WTR CLOUDY    73  68  82 SE3       29.91F
ARBOR VITAE    CLOUDY    77  70  78 S7        29.92S
WOODRUFF       CLOUDY    77  70  78 S7        29.92S
RHINELANDER    LGT RAIN  68  66  93 S5        29.94F
EAGLE RIVER    CLOUDY    75  64  69 CALM      29.92F
LAND O LAKES   CLOUDY    73  66  79 SE9       29.93F
PHILLIPS       CLOUDY    75  69  81 SW6       29.91S
TOMAHAWK         N/A     68  66  93 CALM      29.93F FOG
MEDFORD        PTSUNNY   70  66  86 SW6       29.94R
MERRILL        PTSUNNY   72  70  94 SW5       29.93F
$$

WIZ029-030-035-036-043>047-220000-
CENTRAL WISCONSIN

CITY           SKY/WX    TMP DP  RH WIND       PRES   REMARKS
WAUSAU         PTSUNNY   73  68  84 SW6       29.91F
MOSINEE        PTSUNNY   73  68  83 SW7       29.93F
MARSHFIELD     PTSUNNY   73  63  70 SW14      29.92F
STEVENS POINT  PTSUNNY   75  65  71 SW13      29.93F
WAUPACA        CLOUDY    80  68  67 S5        29.93F HX  82
WAUTOMA        CLOUDY    78  70  76 W7        29.94F HX  80
WISC RAPIDS    PTSUNNY   76  66  71 SW10      29.94F
CAMP DOUGLAS   NOT AVBL
$$

WIZ011>013-019>022-031-037>040-048>050-220000-
NORTHEAST WISCONSIN

CITY           SKY/WX    TMP DP  RH WIND       PRES   REMARKS
ANTIGO         CLOUDY    67  66  97 SE14      29.95F
SHAWANO        CLOUDY    80  68  67 SW3       29.92S HX  82
OCONTO         CLOUDY    77  70  79 SE5       29.90F
STURGEON BAY   MOSUNNY   76  69  79 SE6       29.93F
GREEN BAY      CLOUDY    78  71  79 S5        29.92F HX  80
MANITOWOC      NOT AVBL
APPLETON       PTSUNNY   79  64  61 VRB6      29.92F HX  81
CLINTONVILLE   CLOUDY    77  66  69 S6        29.92S
OSHKOSH        PTSUNNY   78  69  73 S7        29.93F HX  80
$$

WIZ032>034-041-042-053>061-220000-
SOUTHWEST WISCONSIN

CITY           SKY/WX    TMP DP  RH WIND       PRES   REMARKS
LA CROSSE      LGT RAIN  73  68  84 SW7       29.97R
SPARTA         LGT RAIN  72  65  79 SW5       29.97F
VIROQUA        CLOUDY    71  68  90 CALM      29.98F
BOSCOBEL       CLOUDY    80  67  64 SW8       29.97R HX  82
PRAIRIE DU CHI PTSUNNY   78  64  61 SW3       29.97S HX  80
PLATTEVILLE    CLOUDY    77  71  82 S9        29.97F
$$

WIZ056-057-062-063-064-067-068-220000-
SOUTH CENTRAL WISCONSIN

CITY           SKY/WX    TMP DP  RH WIND       PRES   REMARKS
REEDSBURG      CLOUDY    78  68  71 W10       29.96S HX  80
BARABOO/DELLS  CLOUDY    78  66  68 SW6       29.96S
LONE ROCK      NOT AVBL
MINERAL POINT  MOSUNNY   77  70  78 W5        29.99S
MADISON        PTSUNNY   79  66  64 SW9       29.96R HX  81
MIDDLETON      MOSUNNY   80  66  63 SW8       29.98R HX  82
WATERTOWN      CLOUDY    79  71  75 S8        29.96R HX  82
MONROE         PTSUNNY   77  64  65 S13       29.98F
JANESVILLE     PTSUNNY   81  66  61 SW12G17   29.97S HX  83
$$

WIZ051-052-058>065-066-070>072-220000-
SOUTHEAST WISCONSIN

CITY           SKY/WX    TMP DP  RH WIND       PRES   REMARKS
MILWAUKEE      PTSUNNY   84  71  65 SW13      29.96S HX  89
WAUKESHA       SUNNY     79  68  69 S12       29.98R HX  81
MILWAUKEE/TIMM SUNNY     81  66  61 S10       29.97S HX  83
RACINE         MOSUNNY   79  72  79 S12       29.99R HX  82
KENOSHA        MOSUNNY   81  72  74 S8        29.98R HX  85
FOND DU LAC    CLOUDY    79  68  69 SW9       29.95R HX  81
SHEBOYGAN      CLOUDY    77  71  82 S8        29.94F
WEST BEND      MOSUNNY   79  72  78 S3        29.96R HX  82
JUNEAU         MOSUNNY   78  69  75 SW6       29.98R HX  80
$$

LSZ147-162-220000-
LAKE SUPERIOR

STATION/POSITION TIME  TEMP    WIND        PRES    WAVE
                       AIR SEA DIR/SP/G            HT/PER
                 (UTC) (F)     (DEG/KT/KT) (MB)    (FT/S)
W MID LAKE BUOY  2150   62 61   50/  4/  4 1013.1F   0
DEVILS ISLAND    2200   65      80/  5/  5 1012.8F
PORT WING        2140   72      30/  7/  9 1012.5F
SAXON HARBOR     2240   66      CALM  /  3 1011.5F
$$

LMZ867-665-643>646-220000-
LAKE MICHIGAN

STATION/POSITION TIME  TEMP    WIND        PRES    WAVE
                       AIR SEA DIR/SP/G            HT/PER
                 (UTC) (F)     (DEG/KT/KT) (MB)    (FT/S)
S GREEN BAY BUOY 2230   76 74  150/  4/  4 1012.8F
N MID LAKE BUOY  2150   69 69  180/  4/  6 1013.8F   1
NORTHPORT PIER   2240   72     160/  6/  7 1012.9F
KEWAUNEE LAKESHO 2230   70     180/ 10/ 11 1012.9F
SHEBOYGAN LAKESH 2200   72     170/ 12/ 13 1013.6S
PORT WASHINGTON  2240   75     190/  2/  4 1014.9F
ATWATER BUOY     2109   72 70  160/  8/ 10 1014.5F
MILWAUKEE LAKESH 2230   73     150/ 14/ 15   N/A
S MID LAKE BUOY  2150   73 72  160/ 12/ 12 1014.4F   1/ 3
KENOSHA   LAKESH 2200   76     180/ 13/ 16 1014.6
$$

TC  - TEMPERATURE IN CELSIUS
VSB - VISIBILITY IN STATUTE MILES
WCI - WIND CHILL INDEX
HX  - HEAT INDEX




USA.gov is the U.S. government's official web portal to all federal, state and local government web resources and services.